This demonstration page uses our WeatherBlox Daily Observations layout. Learn more.

36.17497, -115.13722

Hourly Observations for February 12, 2015

Temp ( °F °C ) Dew Point ( °F °C ) Humidity (%) Winds ( mph kmh ) Pressure ( in mb ) Visibility ( mi km ) Precip ( " mm )
12:53 am 00:53 Clear 53 11.7 20 -6.7 27 27 W 3 6 30.32 1027 10 16.0934 0 0
1:53 am 01:53 Clear 51 10.6 22 -5.6 32 32 WNW 3 6 30.33 1027 10 16.0934 0 0
2:53 am 02:53 Clear 50 10 23 -5 35 35 Calm 30.33 1027 10 16.0934 0 0
3:53 am 03:53 Clear 48 8.9 24 -4.4 39 39 NW 5 7 30.33 1027 10 16.0934 0 0
4:53 am 04:53 Clear 48 8.9 25 -3.9 41 41 WNW 6 9 30.34 1027 10 16.0934 0 0
5:53 am 05:53 Clear 47 8.3 24 -4.4 41 41 Calm 30.35 1028 10 16.0934 0 0
6:53 am 06:53 Sunny 46 7.8 25 -3.9 44 44 NNW 6 9 30.37 1029 10 16.0934 0 0
7:53 am 07:53 Sunny 53 11.7 25 -3.9 34 34 NNW 5 7 30.37 1029 10 16.0934 0 0
8:53 am 08:53 Sunny 58 14.4 27 -2.8 31 31 SSW 5 7 30.36 1028 10 16.0934 0 0
9:53 am 09:53 Sunny 63 17.2 21 -6.1 20 20 SE 3 6 30.36 1028 10 16.0934 0 0
10:53 am 10:53 Sunny 65 18.3 22 -5.6 19 19 ESE 6 9 30.35 1028 10 16.0934 0 0
11:53 am 11:53 Sunny 67 19.4 22 -5.6 18 18 ESE 5 7 30.32 1027 10 16.0934 0 0
12:53 pm 12:53 Sunny 69 20.6 21 -6.1 16 16 VRB 3 6 30.28 1025 10 16.0934 0 0
1:53 pm 13:53 Sunny 70 21.1 20 -6.7 15 15 VRB 3 6 30.26 1025 10 16.0934 0 0
2:53 pm 14:53 Sunny 72 22.2 19 -7.2 13 13 Calm 30.25 1024 10 16.0934 0 0
3:53 pm 15:53 Sunny 71 21.7 19 -7.2 14 14 ENE 6 9 30.23 1024 10 16.0934 0 0
4:53 pm 16:53 Sunny 71 21.7 19 -7.2 14 14 Calm 30.23 1024 10 16.0934 0 0
5:53 pm 17:53 Clear 67 19.4 20 -6.7 17 17 SSE 3 6 30.24 1024 10 16.0934 0 0
6:53 pm 18:53 Clear 64 17.8 23 -5 21 21 W 6 9 30.24 1024 10 16.0934 0 0
7:53 pm 19:53 Clear 60 15.6 26 -3.3 27 27 NW 6 9 30.24 1024 10 16.0934 0 0
8:53 pm 20:53 Clear 60 15.6 25 -3.9 26 26 NNW 5 7 30.23 1024 10 16.0934 0 0
9:53 pm 21:53 Clear 57 13.9 27 -2.8 32 32 WNW 7 11 30.22 1023 10 16.0934 0 0
10:53 pm 22:53 Clear 60 15.6 18 -7.8 19 19 NNW 8 13 30.22 1024 10 16.0934 0 0
11:53 pm 23:53 Clear 60 15.6 18 -7.8 19 19 N 12 19 30.22 1023 10 16.0934 0 0

Powered by AerisWeather